Date String (YYYY-MM-DD hh:mm:ss) UTC,Instrument flags,Ambient pressure (hPa),Sample flow (lpm),Bypass flow (lpm),Sample temperature (°C),Ambient temperature (°C),ASC tube jacket temperature (°C),LED temperature (°C),Box temperature (°C),Sample RH (%),Span deviation,Mass concentration (μg/m³),Mass concentration (μg/m³),Mass concentration (μg/m³)
DateTimeUTC,F1_M11,P_M11,Q1_M11,Q2_M11,T1_M11,T2_M11,T3_M11,T4_M11,T5_M11,U1_M11,ZSPAN_M11,X0_M11,X2_M11,X1_M11
2022-12-01 06:00:00,,0819.8,4.99,0.00,22.3,21.7,00.0,31.1,24.1,09.9,0000.8,0022.40,0016.15,0015.66
2022-12-01 06:01:00,,0819.7,5.01,0.00,22.2,21.4,00.0,31.1,24.0,09.7,0001.0,0022.33,0015.96,0015.48
2022-12-01 06:02:00,,0819.6,5.00,0.00,22.2,21.1,00.0,31.1,24.0,09.6,0000.7,0021.58,0015.67,0015.21
2022-12-01 06:03:00,,0819.6,5.00,0.00,22.2,20.9,00.0,31.1,23.9,09.5,0000.2,0021.00,0015.13,0014.70
2022-12-01 06:04:00,,0819.5,5.00,0.00,22.2,20.7,00.0,31.1,23.9,09.4,0000.7,0020.05,0014.29,0013.93
2022-12-01 06:05:00,,0819.5,5.00,0.00,22.1,20.6,00.0,31.1,23.9,09.4,0001.3,0018.86,0013.61,0013.24
2022-12-01 06:06:00,,0819.6,5.00,0.00,22.1,20.5,00.0,31.1,23.9,09.3,0001.2,0018.12,0013.10,0012.75
2022-12-01 06:07:00,,0819.7,5.00,0.00,22.1,20.3,00.0,31.1,23.8,09.4,0001.1,0017.86,0012.87,0012.51
2022-12-01 06:08:00,,0819.9,5.00,0.00,22.0,20.2,00.0,31.1,23.7,09.8,0000.7,0017.82,0012.92,0012.56
2022-12-01 06:09:00,,0819.9,4.99,0.00,22.0,20.2,00.0,31.1,23.7,09.7,0000.8,0017.11,0012.56,0012.23
2022-12-01 06:10:00,,0819.7,5.00,0.00,22.0,20.7,00.0,31.0,23.8,09.7,0001.2,0016.87,0012.30,0011.98
2022-12-01 06:11:00,,0819.7,5.01,0.00,22.1,21.7,00.0,30.9,24.0,10.0,0001.7,0016.26,0012.14,0011.80
2022-12-01 06:12:00,,0819.6,5.00,0.00,22.2,22.2,00.0,31.0,24.2,10.0,0001.3,0016.69,0012.17,0011.79
2022-12-01 06:13:00,,0819.4,4.98,0.00,22.2,21.8,00.0,31.0,24.2,09.9,0001.2,0016.71,0012.30,0011.89
2022-12-01 06:14:00,,0819.4,5.01,0.00,22.2,21.3,00.0,31.1,24.0,09.8,0001.1,0016.52,0012.32,0011.91
2022-12-01 06:15:00,,0819.5,5.01,0.00,22.1,20.7,00.0,31.1,23.8,09.8,0000.1,0016.60,0012.35,0011.92
2022-12-01 06:16:00,,0819.5,5.00,0.00,22.1,20.3,00.0,31.1,23.7,09.7,-000.0,0016.64,0012.36,0011.92
2022-12-01 06:17:00,,0819.4,5.00,0.00,22.0,20.1,00.0,31.1,23.6,09.7,-000.1,0016.58,0012.27,0011.83
2022-12-01 06:18:00,,0819.5,5.00,0.00,22.0,20.0,00.0,31.0,23.6,09.8,0000.0,0016.88,0012.26,0011.79
2022-12-01 06:19:00,,0819.6,5.00,0.00,21.9,20.0,00.0,31.0,23.6,10.0,0001.3,0017.68,0012.58,0012.05
2022-12-01 06:20:00,,0819.6,4.99,0.00,21.9,20.1,00.0,31.0,23.6,09.9,0001.0,0018.44,0012.84,0012.28
2022-12-01 06:21:00,,0819.5,4.99,0.00,21.9,20.2,00.0,31.0,23.6,10.0,0000.6,0018.95,0013.12,0012.51
2022-12-01 06:22:00,,0819.4,5.02,0.00,21.9,20.5,00.0,30.9,23.6,10.1,0000.6,0019.26,0013.43,0012.81
2022-12-01 06:23:00,,0819.5,4.99,0.00,22.0,21.5,00.0,30.9,23.9,10.2,0001.1,0018.98,0013.75,0013.10
2022-12-01 06:24:00,,0819.5,4.99,0.00,22.1,22.1,00.0,30.9,24.0,10.2,0001.3,0019.18,0014.20,0013.54
2022-12-01 06:25:00,,0819.4,5.00,0.00,22.1,21.7,00.0,30.9,24.0,10.2,0001.5,0020.00,0014.68,0013.99
2022-12-01 06:26:00,,0819.4,5.00,0.00,22.1,21.1,00.0,31.0,23.9,10.2,0001.7,0020.93,0015.11,0014.42
2022-12-01 06:27:00,,0819.4,5.00,0.00,22.0,20.6,00.0,31.0,23.7,10.3,0001.1,0021.51,0015.62,0014.91
2022-12-01 06:28:00,,0819.4,5.00,0.00,22.0,20.2,00.0,31.0,23.6,10.4,0000.5,0022.26,0016.30,0015.54
2022-12-01 06:29:00,,0819.4,5.00,0.00,21.9,19.9,00.0,30.9,23.5,10.4,-000.5,0022.71,0016.83,0016.05
2022-12-01 06:30:00,,0819.3,5.01,0.00,21.8,19.6,00.0,30.9,23.3,10.5,-000.9,0022.61,0017.13,0016.35
2022-12-01 06:31:00,,0819.3,5.00,0.00,21.7,19.3,00.0,30.9,23.2,10.5,-000.8,0023.10,0017.50,0016.71
2022-12-01 06:32:00,,0819.3,4.99,0.00,21.6,19.3,00.0,30.8,23.2,10.6,-000.9,0023.25,0017.94,0017.17
2022-12-01 06:33:00,,0819.2,5.01,0.00,21.7,20.5,00.0,30.7,23.4,10.5,-001.1,0024.14,0018.29,0017.51
2022-12-01 06:34:00,,0819.3,5.00,0.00,21.8,21.4,00.0,30.7,23.6,10.4,-001.2,0025.35,0018.69,0017.91
2022-12-01 06:35:00,,0819.3,4.99,0.00,21.8,21.0,00.0,30.7,23.6,10.5,-001.5,0025.71,0018.78,0018.03
2022-12-01 06:36:00,,0819.2,5.00,0.00,21.7,20.5,00.0,30.7,23.4,10.5,-001.7,0025.46,0018.71,0017.97
2022-12-01 06:37:00,,0819.3,5.01,0.00,21.7,20.2,00.0,30.7,23.4,10.5,-001.9,0024.81,0018.58,0017.86
2022-12-01 06:38:00,,0819.3,5.00,0.00,21.7,20.0,00.0,30.7,23.3,10.5,-001.6,0024.83,0018.33,0017.65
2022-12-01 06:39:00,,0819.3,4.99,0.00,21.6,19.9,00.0,30.7,23.3,10.5,-001.7,0025.11,0018.16,0017.53
2022-12-01 06:40:00,,0819.2,5.00,0.00,21.6,19.7,00.0,30.7,23.2,10.6,-001.5,0024.39,0017.43,0016.86
2022-12-01 06:41:00,,0819.2,5.00,0.00,21.5,19.4,00.0,30.7,23.0,10.6,-001.5,0023.64,0016.80,0016.24
2022-12-01 06:42:00,,0819.3,5.01,0.00,21.5,19.4,00.0,30.7,23.0,10.7,-001.4,0022.97,0016.62,0016.03
2022-12-01 06:43:00,,0819.3,5.00,0.00,21.5,20.5,00.0,30.6,23.2,10.7,-001.2,0023.01,0016.65,0016.02
2022-12-01 06:44:00,,0819.3,5.00,0.00,21.7,21.5,00.0,30.5,23.5,10.6,-001.2,0022.48,0016.61,0015.98
2022-12-01 06:45:00,,0819.2,4.99,0.00,21.7,21.8,00.0,30.5,23.7,10.5,-001.3,0021.62,0016.51,0015.91
2022-12-01 06:46:00,,0819.3,4.99,0.00,21.7,21.1,00.0,30.6,23.5,10.4,-000.9,0021.35,0016.51,0015.88
2022-12-01 06:47:00,,0819.2,5.00,0.00,21.7,20.5,00.0,30.6,23.3,10.4,-000.5,0021.30,0016.42,0015.82
2022-12-01 06:48:00,,0819.1,5.01,0.00,21.6,19.9,00.0,30.6,23.1,10.5,-000.2,0021.42,0016.44,0015.81
2022-12-01 06:49:00,,0819.0,5.00,0.00,21.5,19.4,00.0,30.6,23.0,10.7,-000.2,0020.82,0016.32,0015.72
2022-12-01 06:50:00,,0819.0,5.00,0.00,21.4,19.0,00.0,30.6,22.9,10.9,0000.8,0019.74,0015.81,0015.21
2022-12-01 06:51:00,,0819.0,5.01,0.00,21.3,18.9,00.0,30.5,22.8,11.0,0001.0,0019.48,0015.82,0015.22
2022-12-01 06:52:00,,0819.0,5.01,0.00,21.4,20.2,00.0,30.4,23.0,11.2,0001.4,0019.02,0015.37,0014.80
2022-12-01 06:53:00,,0819.0,5.00,0.00,21.5,21.4,00.0,30.4,23.3,11.1,0001.4,0017.88,0014.37,0013.90
2022-12-01 06:54:00,,0819.0,4.98,0.00,21.6,21.4,00.0,30.5,23.4,11.2,0001.2,0016.62,0013.02,0012.64
2022-12-01 06:55:00,,0818.9,5.00,0.00,21.6,20.9,00.0,30.5,23.3,11.2,0001.3,0016.09,0011.60,0011.28
2022-12-01 06:56:00,,0819.0,5.00,0.00,21.5,20.6,00.0,30.5,23.3,11.1,0001.5,0014.58,0010.12,0009.81
2022-12-01 06:57:00,,0819.0,5.00,0.00,21.5,20.3,00.0,30.5,23.2,11.0,0001.7,0013.20,0008.84,0008.56
2022-12-01 06:58:00,,0819.0,4.99,0.00,21.5,19.9,00.0,30.5,23.1,11.1,0001.1,0012.52,0008.19,0007.89
2022-12-01 06:59:00,,0819.0,5.00,0.00,21.4,19.4,00.0,30.5,23.0,10.8,0000.6,0012.30,0007.93,0007.64
